2018-051B (43494 NORAD) Tracking and Keplerian Element Data

This shows tracking and keplerian element data for the satellite.

Feedback or suggestion? Click here.




ElementValue
Catalog43494
Name2018-051B
Epoch Orbit73
Epoch Day162.1216899
Epoch Year2018
RAAN47.0004
Inclination51.6138
Eccentricity0.000165
Argument of Perigee150.7242
Mean Anonmoly209.5909
Mean Motion16.45237973
Decay Rate0.10163598
L11 43494U 18051B 18162.12168990 .10163598 12520-4 30976-3 0 9998
L22 43494 51.6138 47.0004 0001650 150.7242 209.5909 16.45237973 739

Live tracking and technical data element details for 2018-051B (NORAD 43494). 2018-051B can be tracked NOW for your location showing map with azimuth and elevation plus other details from your city location.

Track the satellite on the map from your city or location and see movement details for azimuth, elevation, latitude, longitude, range, height, and movement on the map or in text.







IsCatalogInMostPopularTable: catalog: 43494, numindb: 17
Update: records affected: 1



GetName: 43494 2018-051B

Hit Count: updated at: Mon, 23 Jul 2018 07:41:15 GMT